Location: Irma
(52.9170°N, 111.2330°W)
Time: 10:44:15
(UTC-06:00)

Amateur Radio Satellites - All Passes

Search period start: 21 October 2014 10:14
Search period end: 22 October 2014 10:14
Location: Irma, 52.9170°N, 111.2330°W

Satellite Date Start Highest point End Downlink Frequencies (MHz)
Time Altitude Azimuth
JAS-2 21 Oct 10:19:54 10:23:44 15° 321° (NW) 10:27:41 435.800 - 435.900 CW/SSB, 435.910 FM
HO-68 21 Oct 10:22:55 10:30:00 56° 102° (ESE) 10:37:03 435.675 MHz FM
Sapphire 21 Oct 10:41:47 10:45:36 19° 7° (N) 10:49:24 437.095 MHz 1200 baud AX-25 AFSK
ZACube-1 21 Oct 10:50:28 10:53:36 19° 89° (E) 10:56:41 437.345 MHz
Saudisat 1A 21 Oct 11:00:47 11:05:06 52° 322° (NW) 11:09:27 436.775 MHz
MaSat-1 21 Oct 11:01:53 11:04:06 21° 249° (WSW) 11:06:08 437.345 MHz
UKube-1 21 Oct 11:02:31 11:06:49 51° 101° (E) 11:11:05 145.840 MHz, 145.915 MHz
AO-7 21 Oct 11:03:26 11:05:59 12° 353° (N) 11:08:32 29.400 - 29.500 MHz
PCSat 21 Oct 11:05:08 11:09:09 20° 14° (NNE) 11:13:10 145.825 MHz
RS-15 21 Oct 11:22:08 11:27:22 15° 267° (W) 11:32:41 29.354 - 29.394 USB, Beacon 29.352 USB
FUNcube-1 21 Oct 11:35:32 11:39:45 48° 99° (E) 11:43:51 145.950 - 145.970 MHz USB
Oscar 11 21 Oct 11:47:42 11:52:00 65° 288° (WNW) 11:56:15 145.825 FM, Beacon 2401.500 USB
Oscar 16 21 Oct 11:52:47 11:55:19 14° 48° (NE) 11:57:51 437.025 USB, Beacon 2401.1428
KITSAT 1 21 Oct 11:53:57 11:56:14 11° 95° (E) 11:58:32 435.175 FM
HO-68 21 Oct 12:10:56 12:17:35 42° 303° (WNW) 12:24:13 435.675 MHz FM
ITAMSAT 1 21 Oct 12:13:06 12:13:21 10° 42° (NE) 12:13:36 435.822 SSB
AO-Echo 21 Oct 12:19:24 12:21:13 12° 46° (NE) 12:23:03 ?
Sapphire 21 Oct 12:25:44 12:30:39 33° 32° (NNE) 12:35:33 437.095 MHz 1200 baud AX-25 AFSK
ZACube-1 21 Oct 12:26:07 12:30:26 59° 289° (WNW) 12:34:36 437.345 MHz
UKube-1 21 Oct 12:39:12 12:42:46 25° 300° (WNW) 12:46:18 145.840 MHz, 145.915 MHz
Saudisat 1A 21 Oct 12:42:10 12:45:35 21° 345° (NNW) 12:49:01 436.775 MHz
Oscar 19 21 Oct 12:44:28 12:48:51 29° 59° (ENE) 12:53:14 437.125 CW, 437.150 USB
PCSat 21 Oct 12:48:46 12:53:58 43° 38° (NE) 12:59:08 145.825 MHz
AO-7 21 Oct 12:51:24 12:55:23 15° 21° (NNE) 12:59:23 29.400 - 29.500 MHz
AO-27 21 Oct 12:53:42 12:57:16 19° 52° (NE) 13:00:51 436.795 MHz FM
JAS-1B 21 Oct 13:09:57 13:15:21 40° 61° (ENE) 13:20:36 435.800 - 435.900 CW/SSB
FUNcube-1 21 Oct 13:12:21 13:15:55 25° 299° (WNW) 13:19:24 145.950 - 145.970 MHz USB
Oscar 11 21 Oct 13:25:54 13:27:22 12° 309° (NW) 13:28:51 145.825 FM, Beacon 2401.500 USB
Oscar 16 21 Oct 13:28:38 13:33:43 60° 69° (ENE) 13:38:49 437.025 USB, Beacon 2401.1428
Oscar 10/S400 21 Oct 13:41:19 13:51:29 16° 144° (SE) 14:02:34 145.825 - 145.975 CW/USB, Beacon 145.810 USB
Uribyol 2 21 Oct 13:41:41 13:46:32 40° 63° (ENE) 13:51:24 436.500 FM
KITSAT 1 21 Oct 13:42:01 13:49:40 49° 117° (ESE) 13:57:21 435.175 FM
Gurwin Techsat 1B 21 Oct 13:45:15 13:49:32 25° 57° (ENE) 13:53:49 435.225 FM
ITAMSAT 1 21 Oct 13:46:42 13:51:34 41° 63° (ENE) 13:56:28 435.822 SSB
AO-Echo 21 Oct 13:54:08 13:58:53 53° 67° (ENE) 14:03:50 ?
TMSAT-1 21 Oct 13:58:59 14:03:15 25° 57° (ENE) 14:07:31 436.925 FM
HO-68 21 Oct 13:59:58 14:03:33 15° 327° (NNW) 14:07:09 435.675 MHz FM
ZACube-1 21 Oct 14:04:52 14:05:56 11° 310° (NW) 14:06:59 437.345 MHz
Sapphire 21 Oct 14:09:08 14:14:36 75° 235° (SW) 14:20:01 437.095 MHz 1200 baud AX-25 AFSK
SO-50 21 Oct 14:09:35 14:12:58 21° 115° (ESE) 14:16:25 436.795 FM
Oscar 19 21 Oct 14:22:53 14:27:57 55° 259° (W) 14:33:02 437.125 CW, 437.150 USB
Saudisat 1A 21 Oct 14:23:22 14:26:35 19° 9° (N) 14:29:48 436.775 MHz
AO-27 21 Oct 14:30:53 14:36:07 86° 73° (ENE) 14:41:23 436.795 MHz FM
PCSat 21 Oct 14:32:17 14:37:32 51° 240° (WSW) 14:42:45 145.825 MHz
AO-7 21 Oct 14:38:42 14:45:46 33° 46° (NE) 14:52:51 29.400 - 29.500 MHz
JAS-1B 21 Oct 15:00:36 15:06:10 40° 262° (W) 15:11:31 435.800 - 435.900 CW/SSB
Oscar 16 21 Oct 15:09:15 15:13:28 25° 268° (W) 15:17:42 437.025 USB, Beacon 2401.1428
ISS 21 Oct 15:11:52 15:14:15 18° 145° (SE) 15:16:37 145.800 FM
Uribyol 2 21 Oct 15:21:09 15:26:02 39° 263° (W) 15:30:58 436.500 FM
Gurwin Techsat 1B 21 Oct 15:23:48 15:29:06 68° 257° (WSW) 15:34:26 435.225 FM
JAS-2 21 Oct 15:26:07 15:29:20 14° 38° (NE) 15:32:42 435.800 - 435.900 CW/SSB, 435.910 FM
ITAMSAT 1 21 Oct 15:26:17 15:31:08 38° 263° (W) 15:36:01 435.822 SSB
AO-Echo 21 Oct 15:33:50 15:37:59 27° 268° (W) 15:42:16 ?
Uosat F 21 Oct 15:36:27 15:40:43 29° 59° (ENE) 15:45:00 435.120 FM
KITSAT 1 21 Oct 15:37:00 15:45:01 62° 321° (NW) 15:53:03 435.175 FM
TMSAT-1 21 Oct 15:37:28 15:42:45 69° 257° (WSW) 15:48:05 436.925 FM
SO-50 21 Oct 15:48:27 15:53:01 79° 315° (NW) 15:57:45 436.795 FM
UOSAT-12 21 Oct 15:53:11 15:56:43 22° 115° (ESE) 16:00:18 437.025 FM, 437.400 FM
Sapphire 21 Oct 15:54:01 15:57:09 16° 255° (WSW) 16:00:17 437.095 MHz 1200 baud AX-25 AFSK
Saudisat 1A 21 Oct 16:03:06 16:07:16 38° 32° (NNE) 16:11:25 436.775 MHz
AO-27 21 Oct 16:12:54 16:16:21 18° 273° (W) 16:19:48 436.795 MHz FM
AO-7 21 Oct 16:29:32 16:37:50 86° 249° (WSW) 16:46:12 29.400 - 29.500 MHz
ISS 21 Oct 16:47:12 16:50:28 53° 164° (SSE) 16:53:45 145.800 FM
JAS-2 21 Oct 17:06:57 17:12:41 47° 62° (ENE) 17:19:11 435.800 - 435.900 CW/SSB, 435.910 FM
Gurwin Techsat 1B 21 Oct 17:07:59 17:10:06 12° 277° (W) 17:12:14 435.225 FM
Uosat F 21 Oct 17:14:20 17:19:15 55° 259° (W) 17:24:14 435.120 FM
TMSAT-1 21 Oct 17:21:32 17:23:42 12° 277° (W) 17:25:53 436.925 FM
SO-50 21 Oct 17:30:19 17:34:16 27° 339° (NNW) 17:38:19 436.795 FM
UOSAT-12 21 Oct 17:31:42 17:36:23 79° 316° (NW) 17:41:10 437.025 FM, 437.400 FM
Hamsat 21 Oct 17:34:19 17:38:15 39° 67° (ENE) 17:42:10 145.90 MHz
KITSAT 1 21 Oct 17:34:47 17:42:02 34° 348° (NNW) 17:49:17 435.175 FM
Saudisat 1A 21 Oct 17:42:42 17:47:00 51° 234° (SW) 17:51:17 436.775 MHz
SO-67 21 Oct 18:10:11 18:11:51 13° 59° (ENE) 18:13:32 435.3500 MHz FM
ISS 21 Oct 18:23:42 18:27:03 71° 184° (S) 18:30:23 145.800 FM
AO-7 21 Oct 18:25:27 18:31:50 24° 272° (W) 18:38:17 29.400 - 29.500 MHz
OPAL 21 Oct 18:37:04 18:41:56 49° 102° (ESE) 18:46:44 ?
JAS-2 21 Oct 18:52:14 18:57:53 43° 266° (W) 19:04:17 435.800 - 435.900 CW/SSB, 435.910 FM
Hamsat 21 Oct 19:10:42 19:14:19 27° 266° (W) 19:17:57 145.90 MHz
HO-68 21 Oct 19:12:28 19:17:52 24° 45° (NE) 19:23:16 435.675 MHz FM
SO-50 21 Oct 19:12:44 19:16:15 20° 3° (N) 19:19:49 436.795 FM
UOSAT-12 21 Oct 19:13:10 19:17:13 27° 338° (NNW) 19:21:18 437.025 FM, 437.400 FM
AO-40 21 Oct 19:15:53 00:23:24 30° 184° (S) 06:02:09 Beacon 2401.320
KITSAT 1 21 Oct 19:32:20 19:39:43 37° 17° (NNE) 19:47:05 435.175 FM
SO-67 21 Oct 19:40:57 19:44:23 70° 258° (WSW) 19:47:50 435.3500 MHz FM
ISS 21 Oct 20:00:25 20:03:32 36° 204° (SSW) 20:06:38 145.800 FM
STRAND 1 21 Oct 20:15:37 20:20:44 57° 101° (ESE) 20:25:48 ?
OPAL 21 Oct 20:16:17 20:20:40 31° 303° (WNW) 20:25:00 ?
UKube-1 21 Oct 20:29:37 20:32:22 17° 55° (NE) 20:35:08 145.840 MHz, 145.915 MHz
SO-50 21 Oct 20:53:49 20:58:07 32° 27° (NNE) 21:02:30 436.795 FM
UOSAT-12 21 Oct 20:55:15 20:58:47 20° 2° (N) 21:02:19 437.025 FM, 437.400 FM
HO-68 21 Oct 20:57:26 21:04:35 76° 67° (ENE) 21:11:47 435.675 MHz FM
FUNcube-1 21 Oct 21:03:30 21:06:06 15° 54° (NE) 21:08:40 145.950 - 145.970 MHz USB
Oscar 11 21 Oct 21:12:57 21:16:45 30° 64° (ENE) 21:20:32 145.825 FM, Beacon 2401.500 USB
KITSAT 1 21 Oct 21:28:21 21:36:29 72° 44° (NE) 21:44:33 435.175 FM
RS-15 21 Oct 21:32:59 21:38:03 15° 93° (E) 21:43:06 29.354 - 29.394 USB, Beacon 29.352 USB
ISS 21 Oct 21:39:07 21:39:31 10° 222° (SW) 21:39:54 145.800 FM
ZACube-1 21 Oct 21:52:11 21:56:20 35° 65° (ENE) 22:00:26 437.345 MHz
STRAND 1 21 Oct 21:55:17 21:59:40 29° 301° (WNW) 22:04:01 ?
UKube-1 21 Oct 22:03:38 22:08:00 85° 255° (WSW) 22:12:25 145.840 MHz, 145.915 MHz
SO-50 21 Oct 22:34:20 22:39:09 78° 229° (SW) 22:44:01 436.795 FM
UOSAT-12 21 Oct 22:35:59 22:40:15 31° 26° (NNE) 22:44:29 437.025 FM, 437.400 FM
FUNcube-1 21 Oct 22:37:13 22:41:50 82° 74° (ENE) 22:46:23 145.950 - 145.970 MHz USB
HO-68 21 Oct 22:46:59 22:53:00 29° 269° (W) 22:59:05 435.675 MHz FM
Oscar 11 21 Oct 22:48:48 22:52:51 38° 263° (W) 22:56:56 145.825 FM, Beacon 2401.500 USB
KITSAT 1 21 Oct 23:24:10 23:31:28 39° 247° (WSW) 23:38:44 435.175 FM
ZACube-1 21 Oct 23:28:27 23:32:43 37° 264° (W) 23:36:57 437.345 MHz
RS-15 21 Oct 23:37:08 23:47:37 55° 118° (ESE) 23:58:07 29.354 - 29.394 USB, Beacon 29.352 USB
UKube-1 21 Oct 23:43:07 23:44:55 12° 274° (W) 23:46:43 145.840 MHz, 145.915 MHz
FUNcube-1 22 Oct 00:16:01 00:18:47 16° 273° (W) 00:21:32 145.950 - 145.970 MHz USB
UOSAT-12 22 Oct 00:16:07 00:20:53 79° 228° (SW) 00:25:34 437.025 FM, 437.400 FM
SO-50 22 Oct 00:16:07 00:19:01 16° 248° (WSW) 00:21:56 436.795 FM
MaSat-1 22 Oct 00:44:55 00:47:57 20° 111° (ESE) 00:50:46 437.345 MHz
Oscar 16 22 Oct 01:35:47 01:38:13 13° 84° (E) 01:40:38 437.025 USB, Beacon 2401.1428
RS-15 22 Oct 01:49:00 01:59:53 66° 325° (NW) 02:10:55 29.354 - 29.394 USB, Beacon 29.352 USB
AO-Echo 22 Oct 01:56:56 01:58:54 12° 82° (E) 02:00:52 ?
UOSAT-12 22 Oct 01:57:32 02:00:19 16° 248° (WSW) 02:03:05 437.025 FM, 437.400 FM
MaSat-1 22 Oct 02:19:28 02:23:28 57° 307° (NW) 02:27:02 437.345 MHz
Oscar 19 22 Oct 02:28:19 02:32:58 34° 95° (E) 02:37:35 437.125 CW, 437.150 USB
JAS-1B 22 Oct 02:35:37 02:41:26 37° 97° (E) 02:48:07 435.800 - 435.900 CW/SSB
AO-27 22 Oct 02:38:31 02:42:21 20° 89° (E) 02:46:09 436.795 MHz FM
Oscar 10/S400 22 Oct 02:53:17 03:13:25 11° 245° (WSW) 03:39:19 145.825 - 145.975 CW/USB, Beacon 145.810 USB
Oscar 16 22 Oct 03:13:19 03:18:29 76° 104° (ESE) 03:23:36 437.025 USB, Beacon 2401.1428
Uribyol 2 22 Oct 03:27:12 03:32:17 48° 99° (E) 03:37:18 436.500 FM
ITAMSAT 1 22 Oct 03:32:24 03:37:31 50° 100° (E) 03:42:35 435.822 SSB
AO-Echo 22 Oct 03:33:24 03:38:41 66° 102° (ESE) 03:43:58 ?
Gurwin Techsat 1B 22 Oct 03:34:00 03:38:44 31° 94° (E) 03:43:26 435.225 FM
TMSAT-1 22 Oct 03:47:18 03:52:01 31° 94° (E) 03:56:41 436.925 FM
MaSat-1 22 Oct 03:58:04 03:59:50 13° 327° (NNW) 04:01:32 437.345 MHz
RS-15 22 Oct 04:04:01 04:14:24 45° 358° (N) 04:25:03 29.354 - 29.394 USB, Beacon 29.352 USB
Oscar 19 22 Oct 04:07:36 04:12:27 44° 295° (WNW) 04:17:17 437.125 CW, 437.150 USB
AO-27 22 Oct 04:17:12 04:22:28 76° 289° (WNW) 04:27:41 436.795 MHz FM
OPAL 22 Oct 04:19:57 04:24:30 33° 58° (ENE) 04:29:02 ?
AO-7 22 Oct 04:24:55 04:31:08 23° 87° (E) 04:37:20 29.400 - 29.500 MHz
JAS-1B 22 Oct 04:26:22 04:32:19 53° 295° (WNW) 04:39:15 435.800 - 435.900 CW/SSB
Oscar 16 22 Oct 04:53:27 04:57:21 22° 305° (NW) 05:01:14 437.025 USB, Beacon 2401.1428
Sapphire 22 Oct 04:57:31 05:02:04 28° 112° (ESE) 05:06:39 437.095 MHz 1200 baud AX-25 AFSK
Uribyol 2 22 Oct 05:06:59 05:11:38 33° 299° (WNW) 05:16:15 436.500 FM
ITAMSAT 1 22 Oct 05:12:14 05:16:51 32° 300° (WNW) 05:21:27 435.822 SSB
AO-Echo 22 Oct 05:12:46 05:17:04 26° 302° (WNW) 05:21:25 ?
Gurwin Techsat 1B 22 Oct 05:13:48 05:18:56 50° 294° (WNW) 05:24:03 435.225 FM
Uosat F 22 Oct 05:15:58 05:20:24 30° 94° (E) 05:24:49 435.120 FM
PCSat 22 Oct 05:19:43 05:24:47 43° 118° (ESE) 05:29:54 145.825 MHz
TMSAT-1 22 Oct 05:27:02 05:32:11 51° 294° (WNW) 05:37:17 436.925 FM
Oscar 19 22 Oct 05:49:44 05:50:37 10° 316° (NW) 05:51:29 437.125 CW, 437.150 USB
JAS-2 22 Oct 05:53:32 06:00:04 30° 89° (E) 06:06:44 435.800 - 435.900 CW/SSB, 435.910 FM
AO-27 22 Oct 05:57:54 06:01:13 17° 309° (NW) 06:04:31 436.795 MHz FM
OPAL 22 Oct 05:58:17 06:03:16 49° 258° (WSW) 06:08:13 ?
STRAND 1 22 Oct 05:59:39 06:04:00 29° 59° (ENE) 06:08:22 ?
AO-7 22 Oct 06:16:52 06:25:14 81° 110° (ESE) 06:33:36 29.400 - 29.500 MHz
RS-15 22 Oct 06:18:16 06:29:10 60° 30° (NNE) 06:40:25 29.354 - 29.394 USB, Beacon 29.352 USB
JAS-1B 22 Oct 06:18:51 06:21:53 14° 316° (NW) 06:25:05 435.800 - 435.900 CW/SSB
Sapphire 22 Oct 06:39:44 06:45:08 67° 313° (NW) 06:50:35 437.095 MHz 1200 baud AX-25 AFSK
Hamsat 22 Oct 06:49:31 06:53:22 34° 96° (E) 06:57:12 145.90 MHz
Uosat F 22 Oct 06:54:32 06:59:25 49° 294° (WNW) 07:04:16 435.120 FM
Gurwin Techsat 1B 22 Oct 06:55:46 06:57:46 12° 315° (NW) 06:59:46 435.225 FM
PCSat 22 Oct 07:02:57 07:08:12 49° 319° (NW) 07:13:30 145.825 MHz
TMSAT-1 22 Oct 07:08:57 07:10:59 12° 315° (NW) 07:13:01 436.925 FM
STRAND 1 22 Oct 07:37:53 07:42:56 57° 259° (W) 07:48:02 ?
JAS-2 22 Oct 07:38:10 07:45:44 80° 289° (WNW) 07:53:37 435.800 - 435.900 CW/SSB, 435.910 FM
AO-7 22 Oct 08:10:11 08:17:24 35° 312° (NW) 08:24:38 29.400 - 29.500 MHz
Sapphire 22 Oct 08:25:05 08:29:32 25° 337° (NNW) 08:34:00 437.095 MHz 1200 baud AX-25 AFSK
Hamsat 22 Oct 08:25:34 08:29:18 32° 295° (WNW) 08:33:01 145.90 MHz
RS-15 22 Oct 08:31:01 08:41:55 66° 238° (WSW) 08:53:15 29.354 - 29.394 USB, Beacon 29.352 USB
SO-67 22 Oct 08:31:09 08:34:35 58° 101° (E) 08:37:59 435.3500 MHz FM
Uosat F 22 Oct 08:35:31 08:37:07 12° 315° (NW) 08:38:44 435.120 FM
PCSat 22 Oct 08:48:46 08:52:54 21° 343° (NNW) 08:57:02 145.825 MHz
MaSat-1 22 Oct 08:49:38 08:51:49 18° 39° (NE) 08:53:50 437.345 MHz
JAS-2 22 Oct 09:23:59 09:29:52 26° 310° (NW) 09:35:58 435.800 - 435.900 CW/SSB, 435.910 FM
Saudisat 1A 22 Oct 09:33:22 09:37:38 53° 127° (SE) 09:41:57 436.775 MHz
UKube-1 22 Oct 09:48:01 09:49:17 11° 85° (E) 09:50:33 145.840 MHz, 145.915 MHz
AO-7 22 Oct 10:03:40 10:07:51 15° 338° (NNW) 10:12:03 29.400 - 29.500 MHz
SO-67 22 Oct 10:05:08 10:07:11 15° 300° (WNW) 10:09:14 435.3500 MHz FM
